Change the Weather History Date:

Friday, July 26, 2013

  Actual Average Record
Temperature  
Mean Temperature 81 °F -  
Max Temperature 92 °F 91 °F 94 °F (2014)
Min Temperature 70 °F 71 °F 70 °F (2013)
Cooling Degree Days 16    
Growing Degree Days 31 (Base 50)    
Moisture  
Dew Point 69 °F    
Average Humidity 69    
Maximum Humidity 89    
Minimum Humidity 38    
Precipitation  
Precipitation 0.00 in - - ()
Sea Level Pressure  
Sea Level Pressure 30.03 in    
Wind  
Wind Speed 1 mph (NNW)    
Max Wind Speed 7 mph    
Max Gust Speed -    
Visibility 10 miles    
Events Thunderstorm    
Averages and records for this station are not official NWS values.
T = Trace of Precipitation, MM = Missing Value Source: NWS Daily Summary

Daily Weather History Graph

Daily Weather History Graph

Search for Another Location

Airport or City:

Trip Planner

Search our weather history database for the weather conditions in past years. The results will help you decide how hot, cold, wet, or windy it might be!

Date:

Astronomy

Jul. 26, 2013 Rise Set
Actual Time 6:13 AM CDT 7:58 PM CDT
Civil Twilight 5:46 AM CDT 8:24 PM CDT
Nautical Twilight 5:14 AM CDT 8:56 PM CDT
Astronomical Twilight 4:41 AM CDT 9:30 PM CDT
Moon 10:37 PM CDT (7/26) 10:26 AM CDT (7/26)
Length of Visible Light 14h 37m
Length of Day
13h 44m
Waning Gibbous, 80% of the Moon is Illuminated
Jul 26
Waning Gibbous
Jul 29
Last Quarter
Aug 6
New
Aug 14
First Quarter
Aug 20
Full

Hourly Weather History & Observations

Time (CDT) Temp. Heat Index Dew Point Humidity Pressure Visibility Wind Dir Wind Speed Gust Speed Precip Events Conditions
12:15 AM 74.7 °F - 70.7 °F 87% 30.05 in 10.0 mi Calm Calm - N/A   Clear
12:35 AM 74.5 °F - 70.2 °F 86% 30.05 in 10.0 mi Calm Calm - N/A   Clear
12:55 AM 74.5 °F - 69.8 °F 85% 30.05 in 10.0 mi Calm Calm - N/A   Clear
1:15 AM 74.3 °F - 68.9 °F 83% 30.05 in 10.0 mi North - - N/A   Clear
1:35 AM 73.9 °F - 68.7 °F 84% 30.05 in 10.0 mi Calm Calm - N/A   Clear
1:55 AM 72.7 °F - 68.5 °F 87% 30.04 in 10.0 mi Calm Calm - N/A   Clear
2:15 AM 73.0 °F - 68.5 °F 86% 30.04 in 10.0 mi Calm Calm - N/A   Clear
2:35 AM 72.5 °F - 68.9 °F 88% 30.04 in 10.0 mi Calm Calm - N/A   Clear
2:55 AM 72.5 °F - 68.2 °F 86% 30.04 in 10.0 mi Calm Calm - N/A   Clear
3:15 AM 72.5 °F - 67.5 °F 84% 30.04 in 10.0 mi North - - N/A   Clear
3:35 AM 72.9 °F - 67.5 °F 83% 30.04 in 10.0 mi Calm Calm - N/A   Clear
3:55 AM 72.3 °F - 68.0 °F 86% 30.04 in 10.0 mi North - - N/A   Clear
4:15 AM 71.6 °F - 67.5 °F 87% 30.04 in 10.0 mi Calm Calm - N/A   Clear
4:35 AM 71.1 °F - 67.6 °F 89% 30.04 in 10.0 mi Calm Calm - N/A   Clear
4:55 AM 70.7 °F - 67.1 °F 88% 30.04 in 10.0 mi Calm Calm - N/A   Clear
5:15 AM 71.1 °F - 67.1 °F 87% 30.04 in 10.0 mi Calm Calm - N/A   Clear
5:35 AM 70.7 °F - 67.1 °F 88% 30.05 in 10.0 mi Calm Calm - N/A   Clear
5:55 AM 70.7 °F - 66.7 °F 87% 30.05 in 10.0 mi Calm Calm - N/A   Clear
6:15 AM 70.3 °F - 66.7 °F 88% 30.05 in 10.0 mi Calm Calm - N/A   Scattered Clouds
6:35 AM 71.1 °F - 67.1 °F 87% 30.06 in 10.0 mi Calm Calm - N/A   Mostly Cloudy
6:55 AM 71.1 °F - 67.3 °F 88% 30.06 in 10.0 mi North 3.5 mph - N/A   Mostly Cloudy
7:15 AM 71.1 °F - 66.9 °F 87% 30.06 in 10.0 mi North 3.5 mph - N/A   Mostly Cloudy
7:35 AM 72.0 °F - 67.3 °F 85% 30.07 in 10.0 mi North 3.5 mph - N/A   Mostly Cloudy
7:55 AM 73.6 °F - 68.2 °F 83% 30.08 in 10.0 mi North - - N/A   Scattered Clouds
8:15 AM 75.4 °F - 69.3 °F 81% 30.08 in 10.0 mi North - - N/A   Clear
8:35 AM 76.5 °F - 69.3 °F 78% 30.09 in 10.0 mi North - - N/A   Clear
8:55 AM 78.1 °F - 70.0 °F 76% 30.08 in 10.0 mi Calm Calm - N/A   Clear
9:15 AM 79.5 °F - 69.8 °F 72% 30.08 in 10.0 mi Calm Calm - N/A Thunderstorm Clear
9:35 AM 81.5 °F 84.9 °F 69.6 °F 67% 30.08 in 10.0 mi Calm Calm - N/A   Clear
9:55 AM 82.6 °F 86.1 °F 69.3 °F 64% 30.08 in 10.0 mi Calm Calm - N/A   Clear
10:15 AM 83.5 °F 87.2 °F 69.3 °F 62% 30.08 in 10.0 mi Calm Calm - N/A   Clear
10:35 AM 83.8 °F 88.3 °F 70.5 °F 64% 30.08 in 10.0 mi Calm Calm - N/A   Clear
10:55 AM 85.3 °F 89.4 °F 69.3 °F 59% 30.08 in 10.0 mi Calm Calm - N/A   Clear
11:15 AM 86.7 °F 91.0 °F 69.4 °F 56% 30.09 in 10.0 mi NW 4.6 mph - N/A   Clear
11:35 AM 86.9 °F 91.0 °F 68.7 °F 55% 30.08 in 10.0 mi WNW 3.5 mph - N/A   Clear
11:55 AM 87.6 °F 91.5 °F 68.7 °F 53% 30.08 in 10.0 mi WSW 3.5 mph - N/A   Clear
12:15 PM 88.5 °F 90.1 °F 64.9 °F 45% 30.08 in 10.0 mi WNW 3.5 mph - N/A   Clear
12:55 PM 90.1 °F 90.9 °F 63.0 °F 40% 30.06 in 10.0 mi Calm Calm - N/A   Clear
1:15 PM 90.7 °F 92.4 °F 64.4 °F 42% 30.05 in 10.0 mi NW 5.8 mph - N/A   Clear
1:35 PM 91.6 °F 92.7 °F 63.3 °F 39% 30.05 in 10.0 mi NW 5.8 mph - N/A   Clear
1:55 PM 91.4 °F 92.1 °F 62.2 °F 38% 30.04 in 10.0 mi Calm Calm - N/A   Clear
2:15 PM 91.8 °F 93.0 °F 63.7 °F 39% 30.03 in 10.0 mi West 6.9 mph - N/A   Clear
2:35 PM 91.9 °F 93.7 °F 64.6 °F 40% 30.03 in 10.0 mi WNW 3.5 mph - N/A   Clear
2:55 PM 92.5 °F 94.1 °F 64.2 °F 39% 30.03 in 10.0 mi NNW 5.8 mph - N/A   Clear
3:15 PM 92.1 °F 94.0 °F 64.4 °F 40% 30.02 in 10.0 mi North 5.8 mph - N/A   Clear
3:35 PM 91.0 °F 93.8 °F 66.4 °F 44% 30.02 in 10.0 mi NNW 5.8 mph - N/A   Clear
3:55 PM 92.7 °F 95.3 °F 65.7 °F 41% 30.02 in 10.0 mi WNW 3.5 mph - N/A   Clear
4:15 PM 92.8 °F 94.7 °F 64.2 °F 39% 30.01 in 10.0 mi Calm Calm - N/A   Scattered Clouds
4:35 PM 92.5 °F 95.4 °F 66.4 °F 42% 30.00 in 10.0 mi North 4.6 mph - N/A   Scattered Clouds
4:55 PM 91.8 °F 94.6 °F 66.0 °F 43% 30.00 in 10.0 mi NNE 4.6 mph - N/A   Scattered Clouds
5:15 PM 90.0 °F 93.6 °F 68.0 °F 48% 30.00 in 10.0 mi Calm Calm - N/A   Scattered Clouds
5:35 PM 89.8 °F 93.8 °F 68.2 °F 49% 30.00 in 10.0 mi Calm Calm - N/A   Clear
5:55 PM 89.2 °F 94.5 °F 70.2 °F 53% 30.00 in 10.0 mi NE 3.5 mph - N/A   Clear
6:15 PM 90.9 °F 96.2 °F 69.8 °F 50% 29.98 in 10.0 mi NE 4.6 mph - N/A   Clear
6:35 PM 89.8 °F 94.2 °F 69.1 °F 50% 29.98 in 10.0 mi ENE 4.6 mph - N/A   Clear
6:55 PM 88.7 °F 93.5 °F 69.6 °F 53% 29.99 in 10.0 mi ENE 3.5 mph - N/A   Clear
7:15 PM 87.8 °F 93.4 °F 70.7 °F 57% 29.99 in 10.0 mi Calm Calm - N/A   Clear
7:35 PM 84.7 °F 93.6 °F 75.6 °F 74% 29.99 in 10.0 mi Calm Calm - N/A   Clear
7:55 PM 84.2 °F 90.6 °F 73.2 °F 69% 29.98 in 10.0 mi Calm Calm - N/A   Clear
8:15 PM 82.4 °F 88.2 °F 73.2 °F 74% 29.99 in 10.0 mi Calm Calm - N/A   Clear
8:35 PM 81.3 °F 87.8 °F 75.6 °F 83% 29.99 in 10.0 mi Calm Calm - N/A   Clear
8:55 PM 81.5 °F 87.4 °F 74.5 °F 79% 29.99 in 10.0 mi Calm Calm - N/A   Clear
9:15 PM 80.1 °F 84.8 °F 74.7 °F 83% 29.99 in 10.0 mi Calm Calm - N/A   Clear
9:35 PM 81.0 °F 86.3 °F 74.3 °F 80% 29.98 in 10.0 mi Calm Calm - N/A   Clear
9:55 PM 79.9 °F - 75.2 °F 86% 29.99 in 10.0 mi Calm Calm - N/A   Scattered Clouds
10:15 PM 79.9 °F - 74.3 °F 83% 29.98 in 10.0 mi Calm Calm - N/A   Scattered Clouds
10:35 PM 79.2 °F - 74.7 °F 86% 29.99 in 10.0 mi Calm Calm - N/A   Clear
10:55 PM 78.8 °F - 74.5 °F 87% 29.99 in 10.0 mi Calm Calm - N/A   Clear
11:15 PM 78.8 °F - 74.5 °F 87% 29.98 in 10.0 mi SW 3.5 mph - N/A   Clear
11:35 PM 78.8 °F - 74.3 °F 86% 29.99 in 10.0 mi Calm Calm - N/A   Clear
11:55 PM 78.4 °F - 74.1 °F 87% 30.00 in 10.0 mi Calm Calm - N/A   Clear